[[{"header":{"parameterUnit":"m.s-1","parameterCategory":2,"la1":30.2991,"la2":30.254,"lo1":-89.0895,"lo2":-89.0444,"dy":0.0017,"dx":0.0017,"nx":28,"ny":28,"refTime":"2025-03-09T09:00:00:Z","depth":"0","parameterNumber":2,"parameterNumberName":"U-component_of_CURRENTS"},"data":[0,0,0,0,0,0,0,0,0,0,0,0,0,0,0,0,0,0,0,0,0,0,0,0,0,0,0,0,0,0,0,0,0,0,0,0,0,0,0,0,0,0,0,0,0,0,0,0,0,0,0,0,0,0,0,0,0,0,0.3379,0.338,0,0.3448,0.3449,0.3449,0.3465,0.3465,0.3465,0.3464,0.3467,0.3467,0.3468,0,0,0,0,0,0,0,0,0,0,0,0,0,0.3272,0.3274,0.3379,0.338,0.3381,0.3448,0.3449,0.3449,0.3465,0.3465,0.3465,0.3464,0.3467,0.3467,0.3468,0,0,0,0,0,0,0,0,0,0,0,0,0,0.3325,0.3274,0.3379,0.3399,0.3402,0.3448,0.3449,0.345,0.3465,0.3465,0.3464,0.3464,0.3467,0.3467,0.3468,0.3478,0,0,0.3469,0.3469,0,0,0,0,0,0,0,0,0.3322,0.3328,0.3395,0.3398,0.3401,0.345,0.3412,0.3457,0.3465,0.3438,0.3464,0.3464,0.3457,0.3458,0.3469,0.3478,0.3478,0.3469,0.3469,0.347,0.347,0,0,0,0,0,0,0,0.3318,0.3326,0.3404,0.3396,0.34,0.3409,0.3416,0.3421,0.3445,0.3441,0.3442,0.3455,0.3458,0.3469,0.3469,0.3478,0.3469,0.3469,0.347,0.347,0.3457,0.3456,0,0,0,0,0,0,0.3315,0.3322,0.3401,0.3406,0.3363,0.3411,0.3419,0.3432,0.3447,0.345,0.3455,0.3455,0.3468,0.3469,0.3469,0.3445,0.347,0.347,0.347,0.3457,0.3457,0.3456,0,0,0,0,0,0,0.3313,0.3322,0.3399,0.3367,0.3378,0.3414,0.3429,0.3434,0.3448,0.3459,0.346,0.3464,0.3468,0.3469,0.3481,0.3447,0.347,0.3471,0.3458,0.3457,0.3456,0.342,0,0,0,0,0,0,0.3309,0.332,0.3328,0.3367,0.338,0.343,0.343,0.3436,0.3458,0.3458,0.3468,0.3468,0.3468,0.348,0.3481,0.3448,0.3471,0.3459,0.3458,0.3457,0.3422,0.3418,0.3415,0,0,0,0,0,0.3305,0.3318,0.3328,0.3338,0.339,0.3431,0.3438,0.346,0.3458,0.347,0.3475,0.3467,0.3472,0.3481,0.3482,0.3448,0.3459,0.3458,0.3457,0.3424,0.3419,0.3415,0,0,0,0,0,0,0.3262,0.3322,0.3334,0.336,0.3395,0.3435,0.3448,0.3462,0.3478,0.3475,0.3477,0.3478,0.3472,0.3472,0.3482,0.344,0.3457,0.3456,0.3432,0.3427,0.3424,0.3458,0.3471,0,0,0,0,0,0.326,0.3292,0.334,0.3359,0.3378,0.3412,0.3431,0.3449,0.347,0.3477,0.3483,0.3478,0.3468,0.346,0.3463,0.3449,0.3525,0.3423,0.3419,0.3416,0.3445,0.3559,0.357,0.3451,0.3451,0.3452,0,0,0.3247,0.3285,0.3301,0.3354,0.338,0.3395,0.3422,0.3454,0.3451,0.3474,0.3469,0.3477,0.3466,0.345,0.3444,0.3443,0.3483,0.3414,0.3411,0.3443,0.3559,0.3571,0.3582,0.3451,0.3451,0.3451,0,0,0.324,0.3272,0.3297,0.3324,0.3374,0.339,0.3399,0.3442,0.3448,0.3457,0.3459,0.3464,0.3448,0.3439,0.3426,0.3408,0.3471,0.3386,0.3383,0.3492,0.3504,0.3516,0.361,0.3631,0.3371,0.3371,0.3371,0,0.3224,0.3245,0.3307,0.3329,0.3334,0.3382,0.3383,0.3401,0.3438,0.3453,0.3448,0.3466,0.3441,0.3434,0.3408,0.3399,0.3483,0.3396,0.3492,0.3505,0.3517,0.3612,0.3635,0.3369,0.3369,0.3369,0.3369,0,0.323,0.3239,0.3252,0.3287,0.3309,0.3317,0.335,0.3371,0.3379,0.3407,0.3432,0.3433,0.3456,0.3415,0.3395,0.3445,0.3483,0.3487,0.3511,0.3528,0.3625,0.365,0.3366,0.3367,0.3367,0.3368,0,0,0.3196,0.3246,0.3242,0.3243,0.3278,0.3297,0.33,0.3329,0.337,0.3387,0.3443,0.3392,0.3448,0.344,0.343,0.3487,0.3605,0.3516,0.3523,0.3624,0.3867,0.38,0.3821,0.3647,0.3651,0.3654,0.3894,0,0.3165,0.3176,0.321,0.3196,0.3192,0.3235,0.3247,0.3291,0.3342,0.342,0.3438,0.3495,0.3439,0.3475,0.3519,0.3607,0.3673,0.3541,0.3824,0.3833,0.3783,0.3848,0.3695,0.3889,0.3918,0.3923,0.3926,0,0.3141,0.3146,0.3127,0.3151,0.3159,0.3165,0.3222,0.3249,0.3369,0.343,0.3513,0.358,0.3649,0.3619,0.3792,0.3725,0.3796,0.3851,0.3863,0.384,0.3813,0.3879,0.3934,0.3841,0.3965,0.3962,0.3959,0,0.3068,0.308,0.3054,0.3057,0.3103,0.3111,0.3141,0.3249,0.332,0.3477,0.3587,0.3689,0.3778,0.3891,0.3972,0.3925,0.4193,0.4147,0.4154,0.4151,0.4096,0.4079,0.4109,0.4298,0.4297,0.4297,0.4296,0,0.3008,0.2987,0.3021,0.3007,0.3008,0.3067,0.3133,0.3199,0.3362,0.3483,0.3603,0.3731,0.3862,0.4012,0.4067,0.4196,0.4281,0.4193,0.4222,0.4072,0.4051,0.4026,0.3976,0.4306,0.4304,0.4302,0.43,0,0.2937,0.2952,0.2929,0.2958,0.2973,0.2981,0.3114,0.3199,0.3357,0.3534,0.3602,0.3816,0.4004,0.4127,0.4327,0.432,0.4335,0.4462,0.4262,0.426,0.4127,0.408,0.4042,0.3923,0.4527,0.4527,0.4527,0,0.291,0.2885,0.2885,0.2895,0.2907,0.2955,0.3016,0.3165,0.328,0.3574,0.3658,0.3902,0.4044,0.4311,0.4364,0.4496,0.4354,0.4417,0.4266,0.4128,0.4101,0.3923,0.3811,0.4188,0.4185,0.4183,0.4181,0,0.286,0.2852,0.2846,0.2863,0.2897,0.2944,0.304,0.3122,0.3333,0.349,0.3702,0.3846,0.4096,0.4154,0.4318,0.4366,0.4196,0.4371,0.4303,0.3905,0.3647,0.354,0.4015,0.4161,0.4163,0.4164,0.4165,0.4166,0.2842,0.283,0.2847,0.2854,0.2891,0.2938,0.2964,0.3095,0.324,0.3441,0.3616,0.376,0.3937,0.4131,0.4152,0.4102,0.4063,0.4004,0.3988,0.3843,0.3617,0.4028,0.4143,0.4144,0.4146,0.4147,0.4149,0,0.2852,0.2856,0.2861,0.2873,0.2889,0.2918,0.2998,0.3018,0.312,0.3293,0.3439,0.3582,0.3681,0.3797,0.3858,0.3749,0.3568,0.3668,0.3396,0.3326,0.3789,0.3661,0.3582,0.3582,0.3582,0.3582,0.3582,0.3582,0.2876,0.2885,0.2874,0.2885,0.2885,0.2871,0.2883,0.2893,0.2969,0.3031,0.3087,0.3205,0.3461,0.3652,0.3591,0.3504,0.3231,0.3103,0.3093,0.3439,0.3468,0.3495,0.3362,0.3222,0.3222,0.2476,0.2471,0.2466]},{"header":{"parameterUnit":"m.s-1","parameterCategory":2,"la1":30.2991,"la2":30.254,"lo1":-89.0895,"lo2":-89.0444,"dy":0.0017,"dx":0.0017,"nx":28,"ny":28,"refTime":"2025-03-09T09:00:00:Z","depth":"0","parameterNumber":3,"parameterNumberName":"V-component_of_CURRENTS"},"data":[0,0,0,0,0,0,0,0,0,0,0,0,0,0,0,0,0,0,0,0,0,0,0,0,0,0,0,0,0,0,0,0,0,0,0,0,0,0,0,0,0,0,0,0,0,0,0,0,0,0,0,0,0,0,0,0,0,0,-0.0226,-0.0227,0,-0.0338,-0.0339,-0.0341,-0.0427,-0.0428,-0.0429,-0.0429,-0.0548,-0.055,-0.0553,0,0,0,0,0,0,0,0,0,0,0,0,0,-0.0164,-0.0165,-0.0226,-0.0227,-0.0229,-0.0337,-0.0339,-0.0341,-0.0427,-0.0428,-0.0429,-0.0429,-0.0547,-0.055,-0.0553,0,0,0,0,0,0,0,0,0,0,0,0,0,-0.0227,-0.0165,-0.0226,-0.0283,-0.0289,-0.0337,-0.0339,-0.0341,-0.0427,-0.0428,-0.0429,-0.043,-0.0546,-0.055,-0.0553,-0.056,0,0,-0.0565,-0.0567,0,0,0,0,0,0,0,0,-0.0223,-0.023,-0.0273,-0.0279,-0.0286,-0.0367,-0.0361,-0.0414,-0.0427,-0.0377,-0.0429,-0.043,-0.0486,-0.0495,-0.0517,-0.0565,-0.057,-0.0566,-0.0568,-0.057,-0.0571,0,0,0,0,0,0,0,-0.0219,-0.0226,-0.0273,-0.0274,-0.0282,-0.0328,-0.0338,-0.0372,-0.0427,-0.0382,-0.0388,-0.0396,-0.049,-0.0513,-0.0521,-0.0572,-0.0566,-0.0569,-0.0572,-0.0573,-0.06,-0.0598,0,0,0,0,0,0,-0.0195,-0.0221,-0.0269,-0.0276,-0.0253,-0.0328,-0.0339,-0.0342,-0.0427,-0.044,-0.0395,-0.0399,-0.0506,-0.0516,-0.0525,-0.0507,-0.057,-0.0573,-0.0576,-0.0601,-0.0599,-0.0597,0,0,0,0,0,0,-0.0193,-0.0198,-0.0265,-0.025,-0.0261,-0.0328,-0.0331,-0.0344,-0.0363,-0.0436,-0.045,-0.0399,-0.0507,-0.052,-0.0549,-0.0513,-0.0575,-0.0579,-0.0603,-0.0601,-0.0598,-0.049,0,0,0,0,0,0,-0.019,-0.0196,-0.0188,-0.0247,-0.0261,-0.0277,-0.033,-0.0345,-0.0365,-0.0372,-0.0444,-0.0457,-0.0509,-0.0542,-0.0553,-0.052,-0.0582,-0.0605,-0.0602,-0.0599,-0.0496,-0.0485,-0.0475,0,0,0,0,0,-0.0188,-0.0166,-0.0187,-0.0193,-0.0248,-0.0275,-0.0286,-0.034,-0.0364,-0.0362,-0.0416,-0.0455,-0.053,-0.0545,-0.0557,-0.0524,-0.0607,-0.0603,-0.0599,-0.0501,-0.0487,-0.0475,0,0,0,0,0,0,-0.0127,-0.0175,-0.0199,-0.0191,-0.0224,-0.0289,-0.029,-0.0326,-0.0367,-0.0373,-0.0446,-0.0462,-0.0472,-0.051,-0.0525,-0.0521,-0.0569,-0.0568,-0.049,-0.0477,-0.0467,-0.0459,-0.0585,0,0,0,0,0,-0.0109,-0.0111,-0.0161,-0.0153,-0.0165,-0.0225,-0.0242,-0.0275,-0.0321,-0.034,-0.0392,-0.0437,-0.0466,-0.0482,-0.0518,-0.052,-0.0555,-0.0502,-0.0491,-0.0482,-0.0482,-0.052,-0.0513,-0.0585,-0.0585,-0.0585,0,0,-0.0084,-0.0109,-0.0111,-0.0141,-0.0173,-0.0171,-0.0237,-0.025,-0.0248,-0.0344,-0.0356,-0.0406,-0.0459,-0.0464,-0.047,-0.0492,-0.047,-0.0477,-0.0469,-0.0474,-0.0516,-0.0509,-0.0503,-0.0583,-0.0583,-0.0584,0,0,-0.0031,-0.0054,-0.004,-0.0057,-0.0091,-0.0124,-0.0119,-0.0175,-0.0199,-0.0218,-0.028,-0.0312,-0.0359,-0.0394,-0.0415,-0.0364,-0.0416,-0.0362,-0.0301,-0.0337,-0.0332,-0.0328,-0.0325,-0.0322,-0.0353,-0.0352,-0.0352,0,0.0002,0.0014,-0.0037,-0.0023,-0.0026,-0.0092,-0.0069,-0.0096,-0.0154,-0.0169,-0.0202,-0.0277,-0.0324,-0.0333,-0.0317,-0.034,-0.036,-0.0346,-0.0324,-0.0321,-0.0319,-0.0318,-0.0316,-0.0347,-0.0347,-0.0348,-0.0349,0,0.006,0.0075,0.0088,0.0082,0.0073,0.0084,0.0043,0.0028,-0.001,-0.0048,-0.0076,-0.0152,-0.0197,-0.0206,-0.025,-0.0245,-0.0261,-0.031,-0.0358,-0.0306,-0.0307,-0.0307,-0.0339,-0.0341,-0.0342,-0.0344,0,0,0.0121,0.0127,0.0133,0.0148,0.013,0.0129,0.014,0.0122,0.0132,0.0067,0.007,0.0004,-0.0052,-0.008,-0.0137,-0.0171,-0.0162,-0.0224,-0.0229,-0.0222,-0.0212,-0.0201,-0.02,-0.0212,-0.0212,-0.0212,-0.0205,0,0.0184,0.0237,0.0219,0.0274,0.0297,0.0251,0.0263,0.0238,0.021,0.0199,0.0115,0.0093,0.0005,-0.0013,-0.006,-0.0136,-0.0163,-0.0158,-0.0264,-0.0266,-0.0265,-0.0201,-0.0192,-0.0185,-0.0206,-0.0206,-0.0206,0,0.0245,0.0275,0.0337,0.0362,0.0367,0.0385,0.039,0.0396,0.0362,0.0338,0.0292,0.0223,0.0174,0.0086,-0.0023,-0.0015,-0.0103,-0.0172,-0.0175,-0.0209,-0.0256,-0.0249,-0.0185,-0.0372,-0.0207,-0.0207,-0.0206,0,0.0307,0.0357,0.041,0.0421,0.0436,0.0448,0.0453,0.0434,0.0462,0.043,0.0456,0.0352,0.0334,0.0194,0.0056,0.0014,-0.0056,-0.0135,-0.0207,-0.0206,-0.0243,-0.0245,-0.0379,-0.0222,-0.0222,-0.0222,-0.0222,0,0.0377,0.042,0.0442,0.0473,0.0532,0.0513,0.0575,0.0558,0.058,0.0654,0.0535,0.0578,0.0356,0.0287,0.012,-0.0011,-0.0006,-0.0179,-0.0205,-0.0199,-0.0197,-0.04,-0.0519,-0.0222,-0.0222,-0.0222,-0.0222,0,0.043,0.0446,0.0513,0.0549,0.0563,0.0602,0.0668,0.0722,0.0725,0.0829,0.083,0.0763,0.0678,0.0473,0.0277,0.0108,-0.0149,-0.0105,-0.0058,-0.008,-0.0347,-0.0459,-0.0616,-0.0694,-0.0189,-0.0189,-0.0189,0,0.0458,0.05,0.0573,0.0623,0.0643,0.0707,0.076,0.0784,0.0874,0.0966,0.1039,0.0978,0.0985,0.0712,0.0381,0.0112,-0.0101,-0.0075,-0.0177,-0.0341,-0.0487,-0.0568,-0.0629,-0.0166,-0.0166,-0.0165,-0.0165,0,0.0519,0.0545,0.0603,0.0712,0.0782,0.0879,0.0974,0.107,0.1146,0.1259,0.1398,0.1409,0.1144,0.087,0.0472,0.0255,-0.0208,-0.0077,-0.0277,-0.0497,-0.0566,-0.0658,-0.0168,-0.0162,-0.0162,-0.0163,-0.0163,-0.0163,0.0564,0.062,0.0706,0.0806,0.0907,0.1055,0.1164,0.1311,0.149,0.1692,0.1677,0.1746,0.13,0.0756,0.0437,-0.0164,-0.0189,-0.0367,-0.0487,-0.0551,-0.0643,-0.0118,-0.0132,-0.0132,-0.0133,-0.0133,-0.0133,0,0.0623,0.0694,0.0798,0.0938,0.1076,0.1109,0.1314,0.1457,0.1712,0.1884,0.2018,0.1841,0.1308,0.0729,-0.0075,-0.0497,-0.0671,-0.0738,-0.0883,-0.0925,-0.0482,-0.05,-0.0557,-0.0557,-0.0557,-0.0556,-0.0556,-0.0556,0.0662,0.0768,0.0824,0.1056,0.1168,0.1368,0.1499,0.1724,0.189,0.2118,0.2165,0.2157,0.1699,0.0276,-0.0678,-0.0901,-0.1218,-0.1287,-0.143,-0.1172,-0.1148,-0.1125,-0.117,-0.1367,-0.1368,-0.1816,-0.1821,-0.1825]}],[{"header":{"parameterUnit":"m.s-1","parameterCategory":2,"la1":30.2991,"la2":30.254,"lo1":-89.0895,"lo2":-89.0444,"dy":0.0017,"dx":0.0017,"nx":28,"ny":28,"refTime":"2025-03-09T09:00:00:Z","depth":"2","parameterNumber":2,"parameterNumberName":"U-component_of_CURRENTS"},"data":[0,0,0,0,0,0,0,0,0,0,0,0,0,0,0,0,0,0,0,0,0,0,0,0,0,0,0,0,0,0,0,0,0,0,0,0,0,0,0,0,0,0,0,0,0,0,0,0,0,0,0,0,0,0,0,0,0,0,0.2545,0.2546,0,0.261,0.2611,0.2611,0.2647,0.2647,0.2647,0.2648,0.2662,0.2662,0.2662,0,0,0,0,0,0,0,0,0,0,0,0,0,0.2455,0.2456,0.2545,0.2546,0.2547,0.261,0.2611,0.2611,0.2647,0.2647,0.2647,0.2648,0.2662,0.2662,0.2662,0,0,0,0,0,0,0,0,0,0,0,0,0,0.2502,0.2456,0.2545,0.2574,0.2577,0.261,0.2611,0.2612,0.2647,0.2647,0.2647,0.2648,0.2662,0.2662,0.2662,0.2654,0,0,0.2663,0.2663,0,0,0,0,0,0,0,0,0.2499,0.2505,0.2569,0.2572,0.2576,0.2623,0.2584,0.2624,0.2646,0.2618,0.2648,0.2648,0.2645,0.2647,0.2655,0.2655,0.2655,0.2663,0.2663,0.2663,0.2663,0,0,0,0,0,0,0,0.2496,0.2502,0.2568,0.257,0.2574,0.2585,0.2592,0.2592,0.2625,0.262,0.2624,0.2634,0.2647,0.2655,0.2656,0.2655,0.2663,0.2663,0.2663,0.2663,0.2692,0.2693,0,0,0,0,0,0,0.2492,0.2499,0.2566,0.2571,0.2541,0.2587,0.2594,0.2605,0.2627,0.2632,0.2634,0.2636,0.2655,0.2656,0.2657,0.2686,0.2663,0.2663,0.2663,0.2691,0.2692,0.2693,0,0,0,0,0,0,0.249,0.2498,0.2564,0.2538,0.2548,0.2588,0.26,0.2607,0.2625,0.2638,0.2642,0.2647,0.2655,0.2656,0.2666,0.2685,0.2663,0.2663,0.269,0.2691,0.2692,0.2721,0,0,0,0,0,0,0.2487,0.2496,0.2509,0.2538,0.2549,0.2582,0.26,0.2608,0.2631,0.2635,0.265,0.2652,0.2656,0.2666,0.2666,0.2685,0.2663,0.269,0.2691,0.2692,0.2719,0.2723,0.2726,0,0,0,0,0,0.2484,0.2499,0.2509,0.2518,0.2563,0.2582,0.2589,0.2617,0.2632,0.2636,0.2652,0.2652,0.2675,0.2666,0.2667,0.2686,0.2689,0.2691,0.2692,0.2717,0.2722,0.2726,0,0,0,0,0,0,0.2463,0.2505,0.2517,0.2543,0.256,0.2589,0.2606,0.262,0.2637,0.2647,0.2654,0.2656,0.2678,0.2673,0.2664,0.2699,0.2684,0.2686,0.2703,0.2707,0.2711,0.2717,0.2663,0,0,0,0,0,0.2465,0.2484,0.2518,0.2533,0.2549,0.2577,0.2592,0.261,0.2629,0.2638,0.2653,0.2669,0.2683,0.2687,0.2699,0.2708,0.2742,0.2723,0.2726,0.2729,0.2734,0.2808,0.282,0.2698,0.2698,0.2698,0,0,0.2461,0.2483,0.2496,0.2529,0.2551,0.2575,0.2587,0.2613,0.2632,0.2635,0.2669,0.2682,0.2689,0.2711,0.2719,0.2708,0.2783,0.2731,0.2733,0.2737,0.2811,0.2824,0.2834,0.2699,0.2699,0.2699,0,0,0.2454,0.2484,0.2499,0.2519,0.2554,0.2576,0.2583,0.2621,0.2641,0.2665,0.2683,0.2704,0.272,0.2736,0.2742,0.2767,0.2803,0.2774,0.2792,0.2864,0.2875,0.2885,0.2955,0.2971,0.2772,0.2772,0.2772,0,0.2447,0.2471,0.2503,0.2522,0.2544,0.2577,0.2597,0.2622,0.2657,0.2675,0.2679,0.2736,0.2734,0.2771,0.2779,0.2776,0.2828,0.2776,0.2871,0.2881,0.2891,0.296,0.2977,0.2773,0.2773,0.2773,0.2773,0,0.2448,0.2476,0.2487,0.2526,0.2551,0.2571,0.2615,0.2643,0.2672,0.2699,0.2749,0.2765,0.2801,0.2803,0.2794,0.2862,0.2881,0.2872,0.2863,0.2906,0.2975,0.2992,0.2775,0.2775,0.2774,0.2774,0,0,0.2411,0.2475,0.2479,0.2501,0.2557,0.2573,0.2618,0.2662,0.2708,0.274,0.2803,0.2815,0.2844,0.2854,0.2864,0.291,0.3014,0.292,0.2924,0.2994,0.3193,0.3112,0.3123,0.3036,0.3039,0.3041,0.3217,0,0.24,0.243,0.2471,0.2506,0.2533,0.2584,0.2623,0.267,0.2728,0.2801,0.2831,0.2897,0.286,0.2902,0.294,0.3006,0.3061,0.2968,0.3136,0.3141,0.3068,0.314,0.2886,0.3013,0.3234,0.3237,0.3239,0,0.2387,0.2412,0.2441,0.2507,0.2525,0.2553,0.2637,0.2682,0.2785,0.2843,0.2916,0.2964,0.3038,0.3012,0.3141,0.3094,0.3144,0.3184,0.3192,0.3117,0.3092,0.3003,0.3036,0.3269,0.3267,0.3264,0.3262,0,0.2336,0.2393,0.2413,0.2433,0.2513,0.2539,0.2588,0.2686,0.2754,0.2896,0.2975,0.3065,0.3146,0.3214,0.3266,0.3237,0.3416,0.3389,0.3364,0.336,0.3173,0.3146,0.3492,0.3491,0.3491,0.349,0.349,0,0.2307,0.2326,0.2391,0.2404,0.2441,0.2513,0.2588,0.2662,0.2803,0.2894,0.3,0.3096,0.3206,0.3302,0.3332,0.3401,0.3474,0.3389,0.3405,0.3174,0.3147,0.3381,0.3365,0.3497,0.3496,0.3494,0.3493,0,0.2253,0.2292,0.2323,0.2396,0.242,0.2451,0.2582,0.2649,0.2793,0.2931,0.2987,0.3167,0.3298,0.3379,0.3519,0.3491,0.3559,0.356,0.3277,0.3254,0.3446,0.343,0.3582,0.358,0.3579,0.3578,0.3578,0,0.2225,0.2235,0.2302,0.2323,0.2357,0.2424,0.2477,0.2626,0.2717,0.295,0.3011,0.3201,0.3298,0.3472,0.3479,0.3546,0.358,0.333,0.3206,0.3458,0.3459,0.3445,0.3431,0.2986,0.2981,0.2976,0.2972,0,0.2183,0.2208,0.2235,0.2281,0.2326,0.2379,0.2473,0.2536,0.2719,0.2838,0.2998,0.3103,0.3281,0.324,0.3326,0.3314,0.3294,0.324,0.361,0.2984,0.2905,0.2903,0.2907,0.2932,0.2936,0.2939,0.2941,0.2943,0.2156,0.2164,0.2211,0.2244,0.2287,0.2323,0.2342,0.2449,0.2558,0.2701,0.2864,0.2939,0.3021,0.3031,0.2963,0.2915,0.3138,0.2996,0.3007,0.3024,0.2905,0.2826,0.2817,0.282,0.2823,0.2826,0.2828,0,0.2135,0.2156,0.2178,0.2209,0.2211,0.2269,0.2331,0.2323,0.2382,0.2529,0.2639,0.2503,0.2514,0.2581,0.2461,0.2481,0.2425,0.2373,0.227,0.2315,0.2354,0.2195,0.1922,0.1919,0.1916,0.1913,0,0,0.2136,0.2137,0.2141,0.2126,0.2147,0.2129,0.2137,0.2119,0.2176,0.2181,0.2212,0.2432,0.2536,0.2196,0.2166,0.2017,0.214,0.1944,0.2682,0.2609,0.2642,0.2742,0.2553,0,0,0,0,0]},{"header":{"parameterUnit":"m.s-1","parameterCategory":2,"la1":30.2991,"la2":30.254,"lo1":-89.0895,"lo2":-89.0444,"dy":0.0017,"dx":0.0017,"nx":28,"ny":28,"refTime":"2025-03-09T09:00:00:Z","depth":"2","parameterNumber":3,"parameterNumberName":"V-component_of_CURRENTS"},"data":[0,0,0,0,0,0,0,0,0,0,0,0,0,0,0,0,0,0,0,0,0,0,0,0,0,0,0,0,0,0,0,0,0,0,0,0,0,0,0,0,0,0,0,0,0,0,0,0,0,0,0,0,0,0,0,0,0,0,0.0127,0.0126,0,0.0038,0.0037,0.0036,-0.0033,-0.0033,-0.0034,-0.0034,-0.0144,-0.0146,-0.0148,0,0,0,0,0,0,0,0,0,0,0,0,0,0.0174,0.0173,0.0127,0.0126,0.0125,0.0038,0.0037,0.0035,-0.0033,-0.0033,-0.0034,-0.0035,-0.0143,-0.0146,-0.0148,0,0,0,0,0,0,0,0,0,0,0,0,0,0.0125,0.0173,0.0128,0.0082,0.0077,0.0038,0.0037,0.0035,-0.0033,-0.0033,-0.0034,-0.0035,-0.0142,-0.0145,-0.0149,-0.0155,0,0,-0.016,-0.0161,0,0,0,0,0,0,0,0,0.0128,0.0123,0.0089,0.0085,0.0079,0.0014,0.0013,-0.0029,-0.0033,0.0008,-0.0035,-0.0035,-0.0091,-0.0099,-0.0116,-0.016,-0.0165,-0.016,-0.0162,-0.0164,-0.0165,0,0,0,0,0,0,0,0.0131,0.0126,0.0091,0.0088,0.0082,0.0043,0.0036,0.0004,-0.0038,0.0004,-0.0001,-0.0009,-0.0095,-0.0112,-0.0119,-0.0167,-0.016,-0.0163,-0.0166,-0.0167,-0.0247,-0.0247,0,0,0,0,0,0,0.0149,0.013,0.0093,0.0088,0.0103,0.0043,0.0035,0.0035,-0.0037,-0.0048,-0.0008,-0.0011,-0.0105,-0.0114,-0.0123,-0.0143,-0.0164,-0.0167,-0.0169,-0.0247,-0.0247,-0.0247,0,0,0,0,0,0,0.0151,0.0147,0.0097,0.0107,0.0098,0.0044,0.0044,0.0033,0.0016,-0.0046,-0.0058,-0.0015,-0.0106,-0.0118,-0.0151,-0.0148,-0.0169,-0.0172,-0.0247,-0.0247,-0.0247,-0.0178,0,0,0,0,0,0,0.0153,0.0148,0.0154,0.0109,0.0098,0.0084,0.0044,0.0032,0.0013,0.0007,-0.0055,-0.0067,-0.0108,-0.0145,-0.0155,-0.0153,-0.0175,-0.0247,-0.0247,-0.0247,-0.018,-0.0176,-0.0172,0,0,0,0,0,0.0155,0.0168,0.0155,0.0151,0.0109,0.0084,0.0076,0.0033,0.0013,0.0012,-0.0034,-0.0065,-0.0152,-0.0148,-0.0159,-0.0158,-0.0247,-0.0247,-0.0247,-0.0182,-0.0177,-0.0172,0,0,0,0,0,0,0.0189,0.0161,0.0146,0.015,0.0124,0.0073,0.0068,0.0041,0.0004,-0.0003,-0.0062,-0.0076,-0.0107,-0.0139,-0.0134,-0.0182,-0.0205,-0.0207,-0.0152,-0.0147,-0.0143,-0.0122,-0.0178,0,0,0,0,0,0.0202,0.0207,0.017,0.0175,0.0165,0.0119,0.0104,0.0077,0.0038,0.002,-0.0026,-0.0074,-0.0114,-0.0135,-0.0176,-0.0196,-0.0221,-0.0204,-0.02,-0.0196,-0.0187,-0.0221,-0.0218,-0.0247,-0.0247,-0.0247,0,0,0.0216,0.0203,0.0204,0.0183,0.0158,0.015,0.0108,0.0093,0.008,0.0016,-0.0014,-0.006,-0.0117,-0.0146,-0.0162,-0.0172,-0.0201,-0.0196,-0.0191,-0.0185,-0.022,-0.0217,-0.0215,-0.0247,-0.0247,-0.0247,0,0,0.0249,0.0237,0.025,0.0234,0.0207,0.0179,0.0179,0.0133,0.0107,0.0079,0.0024,-0.0014,-0.0074,-0.0116,-0.0144,-0.0137,-0.0177,-0.0153,-0.0112,-0.0145,-0.0142,-0.0141,-0.0163,-0.0164,-0.0149,-0.0149,-0.0149,0,0.0267,0.0277,0.0249,0.0255,0.0246,0.0197,0.0204,0.0172,0.0119,0.0106,0.0079,-0.0009,-0.0059,-0.0096,-0.01,-0.0126,-0.0148,-0.0125,-0.0137,-0.0136,-0.0136,-0.0159,-0.0161,-0.0145,-0.0146,-0.0146,-0.0146,0,0.0303,0.031,0.0317,0.0309,0.0297,0.0296,0.0253,0.0234,0.0199,0.0166,0.0124,0.0053,0.0006,-0.0023,-0.0061,-0.0083,-0.01,-0.0128,-0.0145,-0.0128,-0.0154,-0.0157,-0.0141,-0.0142,-0.0143,-0.0144,0,0,0.0346,0.0344,0.0346,0.0354,0.0326,0.0322,0.0307,0.0282,0.0286,0.022,0.0216,0.0129,0.0095,0.0061,0.0004,-0.0032,-0.0051,-0.0071,-0.0075,-0.0083,-0.0114,-0.0132,-0.0137,-0.0079,-0.0079,-0.008,-0.0131,0,0.0382,0.0412,0.0396,0.0418,0.0428,0.0387,0.038,0.0352,0.0325,0.031,0.023,0.0203,0.0125,0.011,0.006,-0.0019,-0.0057,-0.0034,-0.0138,-0.0141,-0.0151,-0.014,-0.0115,-0.0159,-0.0134,-0.0135,-0.0135,0,0.0418,0.0436,0.0467,0.0478,0.0479,0.0482,0.0479,0.0471,0.0435,0.0419,0.0377,0.0316,0.0249,0.0186,0.0057,0.0077,-0.001,-0.0078,-0.0082,-0.0124,-0.0165,-0.0176,-0.0166,-0.0141,-0.014,-0.014,-0.014,0,0.0462,0.0484,0.0515,0.0517,0.0518,0.0524,0.0524,0.0504,0.0527,0.0497,0.0516,0.0414,0.0387,0.0254,0.0101,0.0084,-0.0033,-0.0075,-0.0176,-0.0178,-0.0189,-0.0191,-0.0163,-0.0163,-0.0163,-0.0163,-0.0162,0,0.0503,0.0528,0.0541,0.0558,0.06,0.058,0.0631,0.0616,0.0635,0.0688,0.0582,0.0598,0.0405,0.0307,0.0146,-0.0015,-0.0001,-0.0162,-0.0192,-0.0164,-0.0164,-0.0178,-0.0179,-0.0165,-0.0164,-0.0164,-0.0163,0,0.054,0.0547,0.0588,0.0609,0.0621,0.0652,0.0715,0.0764,0.0762,0.0832,0.0829,0.075,0.0623,0.0418,0.022,0.0067,-0.0103,-0.0168,-0.0118,-0.0141,-0.0238,-0.0235,-0.028,-0.0281,-0.0282,-0.0283,-0.0283,0,0.0558,0.0583,0.0634,0.0675,0.0688,0.0744,0.0795,0.0823,0.0899,0.093,0.0978,0.0875,0.0821,0.0516,0.0226,-0.0051,-0.0094,-0.0204,-0.0245,-0.0225,-0.025,-0.0245,-0.0241,-0.0231,-0.0231,-0.0231,-0.0231,0,0.0595,0.0613,0.0654,0.0744,0.0807,0.0892,0.0976,0.1058,0.111,0.116,0.121,0.1163,0.0876,0.0597,0.0214,0.0026,-0.0163,-0.0216,-0.0204,-0.0205,-0.0183,-0.0206,-0.0203,-0.0232,-0.0232,-0.0232,-0.0232,-0.0232,0.0624,0.0666,0.0732,0.0818,0.0905,0.1033,0.1128,0.123,0.1348,0.1437,0.1386,0.1321,0.0998,0.0508,0.0176,-0.0169,-0.0163,-0.0285,-0.0283,-0.0281,-0.0266,-0.0247,-0.0304,-0.0305,-0.0305,-0.0305,-0.0305,0,0.0664,0.0721,0.0806,0.0921,0.1039,0.1077,0.1248,0.1346,0.1493,0.1547,0.1572,0.1267,0.0942,0.057,0.0053,-0.0254,-0.0274,-0.0341,-0.0305,-0.0302,-0.0299,-0.0284,-0.0329,-0.0329,-0.033,-0.0331,0,0,0.0688,0.0775,0.0824,0.1013,0.1112,0.1285,0.1396,0.1519,0.1597,0.1643,0.1604,0.1517,0.1051,0.068,0.0255,-0.004,-0.0093,-0.009,-0.0039,0.0057,0.0063,-0.0237,-0.0206,0,0,0,0,0]}],[{"header":{"parameterUnit":"m.s-1","parameterCategory":2,"la1":30.2991,"la2":30.254,"lo1":-89.0895,"lo2":-89.0444,"dy":0.0017,"dx":0.0017,"nx":28,"ny":28,"refTime":"2025-03-09T09:00:00:Z","depth":"4","parameterNumber":2,"parameterNumberName":"U-component_of_CURRENTS"},"data":[0,0,0,0,0,0,0,0,0,0,0,0,0,0,0,0,0,0,0,0,0,0,0,0,0,0,0,0,0,0,0,0,0,0,0,0,0,0,0,0,0,0,0,0,0,0,0,0,0,0,0,0,0,0,0,0,0,0,0.1433,0.1434,0,0.1522,0.1523,0.1524,0.1591,0.1592,0.1593,0.1594,0.1681,0.1683,0.1684,0,0,0,0,0,0,0,0,0,0,0,0,0,0.134,0.1341,0.1433,0.1434,0.1436,0.1522,0.1523,0.1524,0.1591,0.1592,0.1593,0.1594,0.168,0.1682,0.1684,0,0,0,0,0,0,0,0,0,0,0,0,0,0.1399,0.1342,0.1433,0.148,0.1485,0.1522,0.1523,0.1525,0.1591,0.1592,0.1593,0.1594,0.168,0.1682,0.1685,0.1679,0,0,0.1692,0.1693,0,0,0,0,0,0,0,0,0.1396,0.1402,0.1472,0.1477,0.1483,0.1548,0.1523,0.1577,0.1591,0.155,0.1594,0.1595,0.1636,0.1642,0.1655,0.1683,0.1687,0.1693,0.1694,0.1695,0.1696,0,0,0,0,0,0,0,0.1391,0.1399,0.1468,0.1473,0.148,0.1504,0.1513,0.1533,0.1585,0.1554,0.1559,0.157,0.1639,0.1653,0.1658,0.1688,0.1693,0.1695,0.1696,0.1697,0.1848,0.185,0,0,0,0,0,0,0.138,0.1395,0.1465,0.147,0.1442,0.1504,0.1515,0.1525,0.1585,0.1596,0.1569,0.1573,0.1648,0.1655,0.1661,0.1768,0.1695,0.1698,0.1699,0.1846,0.1849,0.1851,0,0,0,0,0,0,0.1378,0.1386,0.1461,0.1435,0.1447,0.1505,0.1516,0.1526,0.1577,0.1597,0.1608,0.1614,0.1649,0.1658,0.1723,0.1768,0.1699,0.1701,0.1843,0.1846,0.185,0.1911,0,0,0,0,0,0,0.1375,0.1384,0.1405,0.1435,0.1448,0.1508,0.1515,0.1527,0.1581,0.1587,0.1638,0.1645,0.1651,0.1719,0.1725,0.177,0.1703,0.1839,0.1844,0.1849,0.1906,0.1916,0.1925,0,0,0,0,0,0.1371,0.1393,0.1406,0.1415,0.1469,0.1509,0.1519,0.1562,0.1582,0.1611,0.1654,0.1646,0.1753,0.1723,0.173,0.1776,0.1837,0.1843,0.1848,0.1901,0.1914,0.1925,0,0,0,0,0,0,0.1363,0.1402,0.1417,0.145,0.1488,0.1521,0.1558,0.1581,0.1637,0.1657,0.1673,0.1683,0.1758,0.1761,0.1727,0.1836,0.1796,0.1803,0.1834,0.1846,0.1856,0.1835,0.1705,0,0,0,0,0,0.1369,0.1401,0.1434,0.1466,0.1487,0.1528,0.1556,0.1586,0.1629,0.1657,0.1692,0.1736,0.1779,0.1809,0.1842,0.1896,0.1891,0.1934,0.1944,0.1952,0.1942,0.1965,0.1975,0.187,0.187,0.187,0,0,0.1374,0.1402,0.142,0.1468,0.1502,0.1544,0.1549,0.1604,0.1649,0.1655,0.1739,0.177,0.1802,0.187,0.1903,0.1883,0.1989,0.1959,0.1966,0.1951,0.1972,0.1981,0.199,0.1874,0.1873,0.1872,0,0,0.1392,0.1427,0.1458,0.1495,0.1554,0.158,0.1603,0.1657,0.1697,0.1768,0.1791,0.1846,0.1915,0.1943,0.1965,0.2047,0.2038,0.2074,0.2108,0.2131,0.2139,0.2146,0.2183,0.2193,0.2081,0.2081,0.2081,0,0.1401,0.1441,0.1474,0.1516,0.1555,0.16,0.1644,0.1689,0.1761,0.179,0.1808,0.1916,0.1945,0.2015,0.2053,0.2067,0.2084,0.2058,0.2141,0.2147,0.2153,0.2189,0.2199,0.2084,0.2084,0.2084,0.2083,0,0.1433,0.1482,0.1509,0.1576,0.1619,0.1671,0.1726,0.178,0.1832,0.1866,0.1954,0.1999,0.2056,0.2087,0.2099,0.2167,0.2169,0.2147,0.2102,0.2167,0.2202,0.2211,0.209,0.2088,0.2087,0.2086,0,0,0.1411,0.1511,0.1525,0.1565,0.166,0.1691,0.1772,0.1839,0.1886,0.1962,0.2022,0.2107,0.2126,0.2153,0.2181,0.2208,0.228,0.2204,0.2204,0.2226,0.2352,0.2226,0.2224,0.2275,0.2276,0.2277,0.2371,0,0.1433,0.1511,0.1561,0.1645,0.1689,0.1757,0.182,0.1887,0.1952,0.2021,0.2074,0.2147,0.2155,0.2199,0.2228,0.2271,0.2302,0.2258,0.2299,0.23,0.2166,0.2228,0.2281,0.2377,0.2379,0.2381,0.2382,0,0.1443,0.1499,0.158,0.1674,0.1699,0.1758,0.1856,0.1919,0.2013,0.2064,0.2137,0.2182,0.2266,0.2249,0.2341,0.2319,0.2339,0.2358,0.2361,0.2218,0.2188,0.2294,0.2397,0.2396,0.2395,0.2394,0.2393,0,0.1398,0.1508,0.1573,0.1612,0.1725,0.1775,0.1837,0.1932,0.1992,0.21,0.2157,0.224,0.2316,0.2344,0.2407,0.2383,0.249,0.2453,0.2357,0.2351,0.2407,0.2398,0.249,0.249,0.249,0.249,0.2489,0,0.1389,0.1445,0.1563,0.1601,0.1674,0.1758,0.1838,0.191,0.202,0.2088,0.218,0.2251,0.2344,0.2419,0.2434,0.2435,0.2516,0.2366,0.2359,0.2438,0.2431,0.2415,0.2405,0.2493,0.2493,0.2492,0.2491,0,0.1333,0.1415,0.1493,0.1618,0.1659,0.1712,0.1842,0.1888,0.2009,0.2107,0.2152,0.2298,0.239,0.2463,0.2538,0.2473,0.2478,0.2454,0.2568,0.2565,0.2319,0.2311,0.2339,0.2336,0.2332,0.233,0.2327,0,0.1308,0.1347,0.1488,0.1532,0.1599,0.1688,0.174,0.187,0.1926,0.2118,0.2154,0.2306,0.2381,0.2396,0.2472,0.249,0.2455,0.2441,0.2333,0.2309,0.2301,0.2299,0.2296,0.2322,0.2321,0.2321,0.232,0,0.1259,0.1324,0.1386,0.1476,0.1548,0.161,0.1704,0.1737,0.1885,0.2018,0.2107,0.2161,0.2267,0.232,0.2362,0.2362,0.2433,0.2406,0.2411,0.231,0.2289,0.2283,0.2284,0.2308,0.231,0.2311,0.2312,0,0.122,0.1244,0.1331,0.1398,0.1478,0.151,0.1571,0.1642,0.1717,0.1926,0.1959,0.2114,0.2256,0.2258,0.2295,0.229,0.2238,0.2141,0.2159,0.2172,0.207,0.2016,0.1947,0,0,0,0,0,0.117,0.1184,0.124,0.13,0.1373,0.1421,0.1533,0.1596,0.1747,0.1762,0.1855,0.1939,0.2008,0.2093,0.2052,0.2211,0.224,0.2151,0.2136,0.2246,0.2259,0.2152,0,0,0,0,0,0,0.1134,0.1182,0.1203,0.1203,0.1223,0.1284,0.1352,0.1457,0.1471,0.164,0.1691,0.1817,0.1914,0.2011,0.2014,0.2036,0.1985,0.225,0.2244,0.2239,0.2251,0.2261,0.2155,0,0,0,0,0]},{"header":{"parameterUnit":"m.s-1","parameterCategory":2,"la1":30.2991,"la2":30.254,"lo1":-89.0895,"lo2":-89.0444,"dy":0.0017,"dx":0.0017,"nx":28,"ny":28,"refTime":"2025-03-09T09:00:00:Z","depth":"4","parameterNumber":3,"parameterNumberName":"V-component_of_CURRENTS"},"data":[0,0,0,0,0,0,0,0,0,0,0,0,0,0,0,0,0,0,0,0,0,0,0,0,0,0,0,0,0,0,0,0,0,0,0,0,0,0,0,0,0,0,0,0,0,0,0,0,0,0,0,0,0,0,0,0,0,0,0.019,0.0189,0,0.0139,0.0139,0.0138,0.0107,0.0107,0.0107,0.0107,0.0029,0.0027,0.0025,0,0,0,0,0,0,0,0,0,0,0,0,0,0.0212,0.0213,0.019,0.0189,0.0189,0.0139,0.0139,0.0138,0.0107,0.0107,0.0107,0.0107,0.003,0.0027,0.0025,0,0,0,0,0,0,0,0,0,0,0,0,0,0.0186,0.0213,0.019,0.0168,0.0165,0.0139,0.0139,0.0138,0.0107,0.0107,0.0107,0.0107,0.0031,0.0028,0.0025,0.0011,0,0,0.0016,0.0015,0,0,0,0,0,0,0,0,0.0188,0.0186,0.0172,0.0169,0.0166,0.013,0.0118,0.0094,0.0107,0.0129,0.0107,0.0107,0.006,0.0055,0.0046,0.0007,0.0004,0.0016,0.0014,0.0013,0.0012,0,0,0,0,0,0,0,0.019,0.0187,0.017,0.0171,0.0168,0.0144,0.014,0.0113,0.0096,0.0127,0.0125,0.012,0.0059,0.0049,0.0044,0.0003,0.0016,0.0013,0.0011,0.001,-0.0079,-0.008,0,0,0,0,0,0,0.0199,0.0189,0.0171,0.0168,0.0177,0.0144,0.014,0.0141,0.0097,0.009,0.012,0.0118,0.0054,0.0047,0.0041,0.0014,0.0013,0.001,0.0008,-0.0079,-0.008,-0.008,0,0,0,0,0,0,0.02,0.0198,0.0173,0.0177,0.0172,0.0144,0.0146,0.0141,0.0133,0.0091,0.0084,0.0118,0.0054,0.0045,0.0016,0.0011,0.0009,0.0006,-0.0078,-0.0079,-0.008,-0.0036,0,0,0,0,0,0,0.0201,0.0199,0.0206,0.0178,0.0172,0.0162,0.0146,0.014,0.013,0.0127,0.0087,0.0079,0.0053,0.002,0.0013,0.0007,0.0004,-0.0077,-0.0078,-0.008,-0.0037,-0.0036,-0.0035,0,0,0,0,0,0.0202,0.0211,0.0206,0.0204,0.0182,0.0162,0.0157,0.0136,0.013,0.0128,0.0098,0.0081,0.0007,0.0018,0.0009,0.0002,-0.0077,-0.0078,-0.0079,-0.0038,-0.0036,-0.0035,0,0,0,0,0,0,0.0221,0.0208,0.0202,0.0206,0.0188,0.0157,0.0155,0.0141,0.0116,0.0115,0.0077,0.0067,0.0036,0.0012,0.0025,-0.003,-0.004,-0.0043,-0.0005,-0.0004,-0.0002,0.002,0.0001,0,0,0,0,0,0.023,0.0236,0.0213,0.0217,0.0211,0.0185,0.0176,0.0161,0.0135,0.0125,0.0095,0.0059,0.0023,0.0006,-0.0028,-0.0052,-0.0072,-0.0065,-0.0064,-0.0062,-0.0052,-0.0082,-0.0082,-0.0085,-0.0085,-0.0085,0,0,0.0238,0.0232,0.0235,0.0222,0.0208,0.02,0.0179,0.0169,0.0158,0.012,0.0098,0.0063,0.0017,-0.0014,-0.003,-0.0033,-0.0076,-0.0064,-0.0063,-0.0053,-0.0083,-0.0083,-0.0082,-0.0086,-0.0086,-0.0085,0,0,0.0254,0.0253,0.0261,0.025,0.0234,0.0216,0.0216,0.0187,0.0172,0.0147,0.0112,0.008,0.0029,-0.0005,-0.0029,-0.0041,-0.0069,-0.0058,-0.0032,-0.0061,-0.006,-0.006,-0.0095,-0.0098,-0.0056,-0.0056,-0.0056,0,0.0265,0.0273,0.0259,0.0261,0.0256,0.0227,0.0229,0.0206,0.017,0.0162,0.0146,0.0073,0.0034,-0.0004,-0.0012,-0.0036,-0.0058,-0.003,-0.0057,-0.0057,-0.0057,-0.0093,-0.0097,-0.0054,-0.0054,-0.0055,-0.0055,0,0.0282,0.029,0.0293,0.0289,0.028,0.0278,0.0248,0.0235,0.0214,0.0193,0.0156,0.0101,0.0064,0.0036,0.0008,-0.002,-0.0037,-0.005,-0.0053,-0.0054,-0.0093,-0.0097,-0.0051,-0.0052,-0.0053,-0.0053,0,0,0.0303,0.0307,0.0308,0.0317,0.0298,0.0295,0.0279,0.0261,0.0265,0.0215,0.021,0.0137,0.0118,0.0089,0.0044,0.0012,-0.0019,-0.0015,-0.0018,-0.0037,-0.0088,-0.0095,-0.0101,-0.0034,-0.0034,-0.0034,-0.0116,0,0.0322,0.0342,0.0334,0.0349,0.0355,0.0331,0.0323,0.0304,0.0284,0.0271,0.0209,0.0186,0.0133,0.0121,0.0079,0.0008,-0.0028,0.0004,-0.0095,-0.0098,-0.0093,-0.0105,-0.0036,-0.012,-0.0121,-0.0122,-0.0123,0,0.0338,0.0353,0.0375,0.0389,0.0391,0.0394,0.0395,0.0386,0.0357,0.0345,0.0311,0.0267,0.0205,0.0167,0.0049,0.0073,0.0001,-0.0058,-0.0063,-0.0084,-0.0114,-0.012,-0.0132,-0.0131,-0.013,-0.013,-0.0129,0,0.0362,0.038,0.0405,0.0408,0.0414,0.0424,0.0427,0.0413,0.0427,0.04,0.0411,0.0326,0.0295,0.0191,0.0061,0.0059,-0.0067,-0.0086,-0.0164,-0.0166,-0.0153,-0.0152,-0.0161,-0.0161,-0.0161,-0.0161,-0.0161,0,0.0381,0.0401,0.0424,0.0437,0.0474,0.0465,0.0505,0.0496,0.0505,0.0531,0.0459,0.0453,0.0302,0.0208,0.0084,-0.0056,-0.0052,-0.0159,-0.0185,-0.0136,-0.0133,-0.0157,-0.0156,-0.0164,-0.0163,-0.0163,-0.0162,0,0.0395,0.0409,0.0444,0.0472,0.0487,0.0514,0.0568,0.06,0.06,0.0632,0.0628,0.055,0.0424,0.0262,0.0089,-0.0014,-0.0155,-0.0205,-0.0143,-0.0165,-0.0242,-0.0238,-0.0297,-0.0298,-0.0299,-0.0299,-0.03,0,0.0401,0.0421,0.0476,0.0512,0.053,0.0579,0.062,0.0644,0.0688,0.0688,0.0706,0.0602,0.0524,0.0279,0.01,-0.014,-0.0175,-0.0249,-0.0246,-0.0235,-0.0255,-0.0249,-0.0244,-0.0301,-0.0301,-0.0301,-0.0302,0,0.0411,0.0435,0.0469,0.0547,0.0602,0.067,0.0732,0.0772,0.0799,0.0802,0.0774,0.0641,0.0498,0.029,0.0102,-0.0071,-0.0202,-0.0257,-0.0257,-0.0255,-0.024,-0.0258,-0.0252,-0.0304,-0.0304,-0.0303,-0.0303,0,0.042,0.0449,0.0504,0.0574,0.0652,0.0734,0.0767,0.0814,0.0852,0.0851,0.0835,0.0675,0.0581,0.0326,0.0152,-0.0021,-0.0067,-0.0121,-0.0129,-0.0128,-0.006,-0.0015,-0.0029,0,0,0,0,0,0.0423,0.0462,0.0528,0.0608,0.0693,0.0746,0.0829,0.086,0.0888,0.088,0.0864,0.0728,0.0473,0.0363,0.0191,0.0122,-0.0107,-0.0087,-0.0176,-0.0318,-0.0315,-0.0265,0,0,0,0,0,0,0.0425,0.0483,0.0523,0.0628,0.0695,0.0793,0.0854,0.0879,0.0878,0.0875,0.0746,0.0681,0.0435,0.0571,0.0186,0.0133,0.0052,-0.0206,-0.021,-0.032,-0.0317,-0.0315,-0.0263,0,0,0,0,0]}]]